NGN2603 LOWI-EDDF

Flight info

Callsign NGN2603
Flight time 0h 41m
Altitude 38000
Route KOGOL M726 ERNAS T161 DEBHI DEBHI1A
Aircraft A320/M-SDE3FGHIRWY/LB1

Departure

Time 2026-05-04 14:58
Airport Innsbruck Airport (LOWI)

Arrival

Time 2026-05-04 15:40
Airport Frankfurt Main Airport (EDDF)
Time Latitude Longitude Altitude Speed Heading
2026-05-04 14:29 47.25823 11.35049 1900 ft 0 kts 171°
2026-05-04 14:50 47.25848 11.35044 1894 ft 4 kts 176°
2026-05-04 14:50 47.25872 11.35047 1894 ft 4 kts 220°
2026-05-04 14:50 47.25878 11.35059 1894 ft 0 kts 261°
2026-05-04 14:53 47.25877 11.35048 1896 ft 6 kts 261°
2026-05-04 14:54 47.25869 11.34971 1907 ft 7 kts 261°
2026-05-04 14:54 47.25860 11.34887 1903 ft 15 kts 261°
2026-05-04 14:54 47.25835 11.34668 1896 ft 24 kts 261°
2026-05-04 14:54 47.25808 11.34420 1896 ft 25 kts 261°
2026-05-04 14:55 47.25779 11.34161 1899 ft 26 kts 260°
2026-05-04 14:55 47.25799 11.33901 1899 ft 27 kts 304°
2026-05-04 14:55 47.25909 11.33675 1902 ft 27 kts 305°
2026-05-04 14:55 47.25911 11.33412 1906 ft 27 kts 261°
2026-05-04 14:56 47.25846 11.33189 1895 ft 22 kts 257°
2026-05-04 14:56 47.25875 11.33071 1902 ft 4 kts 13°
2026-05-04 14:56 47.25880 11.33091 1903 ft 1 kts 71°
2026-05-04 14:56 47.25881 11.33097 1904 ft 2 kts 73°
2026-05-04 14:57 47.25891 11.33180 1906 ft 0 kts 82°
2026-05-04 14:57 47.25897 11.33239 1897 ft 29 kts 81°
2026-05-04 14:58 47.25977 11.33994 1909 ft 116 kts 81°
2026-05-04 14:58 47.26133 11.35501 2018 ft 170 kts 87°
2026-05-04 14:58 47.26348 11.37229 2921 ft 171 kts 83°
2026-05-04 14:58 47.26529 11.38965 3755 ft 174 kts 86°
2026-05-04 14:59 47.26706 11.40825 4112 ft 195 kts 86°
2026-05-04 14:59 47.26901 11.42899 4399 ft 213 kts 85°
2026-05-04 14:59 47.27790 11.47293 5151 ft 245 kts 73°
2026-05-04 15:00 47.28458 11.49736 5512 ft 270 kts 70°
2026-05-04 15:00 47.29212 11.52363 6197 ft 284 kts 70°
2026-05-04 15:00 47.30000 11.55071 7052 ft 291 kts 69°
2026-05-04 15:01 47.31588 11.60589 8880 ft 298 kts 69°
2026-05-04 15:01 47.32481 11.63394 9582 ft 307 kts 59°
2026-05-04 15:01 47.33941 11.65704 10420 ft 314 kts 36°
2026-05-04 15:01 47.35980 11.67076 10753 ft 336 kts
2026-05-04 15:02 47.38357 11.66972 10947 ft 352 kts 342°
2026-05-04 15:02 47.40541 11.65254 11316 ft 362 kts 319°
2026-05-04 15:02 47.42527 11.62914 11993 ft 368 kts 319°
2026-05-04 15:02 47.44548 11.60553 12768 ft 372 kts 319°
2026-05-04 15:03 47.46590 11.58180 13487 ft 376 kts 319°
2026-05-04 15:03 47.48656 11.55785 14129 ft 380 kts 319°
2026-05-04 15:03 47.50753 11.53359 14709 ft 384 kts 319°
2026-05-04 15:03 47.52859 11.50916 15351 ft 387 kts 319°
2026-05-04 15:04 47.54986 11.48440 15998 ft 390 kts 319°
2026-05-04 15:04 47.57126 11.45938 16635 ft 394 kts 319°
2026-05-04 15:04 47.59299 11.43433 17256 ft 399 kts 322°
2026-05-04 15:04 47.61717 11.41348 17846 ft 406 kts 333°
2026-05-04 15:05 47.64398 11.39943 18434 ft 412 kts 344°
2026-05-04 15:05 47.67253 11.39284 18968 ft 418 kts 353°
2026-05-04 15:05 47.70154 11.38911 19513 ft 420 kts 353°
2026-05-04 15:05 47.73081 11.38524 20042 ft 423 kts 353°
2026-05-04 15:06 47.76018 11.38130 20574 ft 425 kts 353°
2026-05-04 15:06 47.78973 11.37727 21093 ft 428 kts 353°
2026-05-04 15:06 47.81946 11.37317 21599 ft 430 kts 353°
2026-05-04 15:07 47.87951 11.36517 22614 ft 436 kts 353°
2026-05-04 15:07 47.90988 11.36221 23111 ft 439 kts 354°
2026-05-04 15:07 47.94043 11.35981 23577 ft 441 kts 355°
2026-05-04 15:07 47.97120 11.35761 23962 ft 444 kts 355°
2026-05-04 15:08 48.00213 11.35532 24355 ft 446 kts 355°
2026-05-04 15:08 48.03317 11.35289 24731 ft 448 kts 354°
2026-05-04 15:08 48.06440 11.35032 25099 ft 450 kts 354°
2026-05-04 15:08 48.09568 11.34656 25467 ft 452 kts 352°
2026-05-04 15:09 48.12696 11.34114 25831 ft 454 kts 350°
2026-05-04 15:09 48.15832 11.33456 26201 ft 456 kts 349°
2026-05-04 15:09 48.18972 11.32748 26548 ft 458 kts 349°
2026-05-04 15:10 48.25312 11.31361 27208 ft 463 kts 349°
2026-05-04 15:10 48.28518 11.30732 27539 ft 465 kts 351°
2026-05-04 15:10 48.34982 11.29713 28180 ft 470 kts 352°
2026-05-04 15:11 48.38249 11.29255 28491 ft 472 kts 352°
2026-05-04 15:11 48.41522 11.28793 28789 ft 474 kts 352°
2026-05-04 15:11 48.44810 11.28306 29091 ft 476 kts 352°
2026-05-04 15:11 48.48106 11.27794 29481 ft 476 kts 351°
2026-05-04 15:12 48.51391 11.27269 29942 ft 474 kts 351°
2026-05-04 15:12 48.54671 11.26736 30336 ft 473 kts 351°
2026-05-04 15:12 48.57933 11.26203 30744 ft 471 kts 351°
2026-05-04 15:13 48.64443 11.25117 30747 ft 469 kts 351°
2026-05-04 15:13 48.67614 11.24617 31005 ft 469 kts 351°
2026-05-04 15:13 48.70860 11.24111 31369 ft 468 kts 352°
2026-05-04 15:13 48.74097 11.23606 31740 ft 468 kts 352°
2026-05-04 15:14 48.77331 11.23096 32119 ft 467 kts 351°
2026-05-04 15:14 48.80515 11.22301 32532 ft 461 kts 342°
2026-05-04 15:14 48.83540 11.20772 32907 ft 456 kts 333°
2026-05-04 15:14 48.86346 11.18579 33275 ft 452 kts 324°
2026-05-04 15:15 48.88874 11.15798 33635 ft 447 kts 316°
2026-05-04 15:15 48.91173 11.12627 33975 ft 446 kts 314°
2026-05-04 15:15 48.93455 11.09441 34297 ft 445 kts 314°
2026-05-04 15:16 48.97977 11.03127 34942 ft 444 kts 314°
2026-05-04 15:16 49.00253 10.99938 35218 ft 444 kts 314°
2026-05-04 15:16 49.04780 10.93579 35840 ft 442 kts 314°
2026-05-04 15:17 49.07024 10.90400 36116 ft 440 kts 311°
2026-05-04 15:17 49.10891 10.83248 36614 ft 436 kts 305°
2026-05-04 15:17 49.12780 10.79636 36895 ft 435 kts 305°
2026-05-04 15:18 49.14665 10.76023 37144 ft 435 kts 305°
2026-05-04 15:18 49.16542 10.72412 37398 ft 434 kts 305°
2026-05-04 15:18 49.17785 10.70016 37564 ft 434 kts 305°
2026-05-04 15:19 49.21532 10.62784 37992 ft 434 kts 304°
2026-05-04 15:19 49.27166 10.51891 36994 ft 441 kts 304°
2026-05-04 15:20 49.29062 10.48204 36382 ft 438 kts 304°
2026-05-04 15:20 49.30937 10.44557 35853 ft 434 kts 304°
2026-05-04 15:20 49.32801 10.40935 35339 ft 430 kts 304°
2026-05-04 15:20 49.34644 10.37349 34841 ft 426 kts 304°
2026-05-04 15:21 49.36466 10.33801 34352 ft 422 kts 304°
2026-05-04 15:21 49.38270 10.30284 33882 ft 418 kts 304°
2026-05-04 15:21 49.41825 10.23331 32720 ft 412 kts 304°
2026-05-04 15:22 49.43596 10.19846 31814 ft 415 kts 303°
2026-05-04 15:22 49.45358 10.16382 30950 ft 408 kts 303°
2026-05-04 15:22 49.48807 10.09612 29160 ft 396 kts 303°
2026-05-04 15:23 49.50515 10.06244 28221 ft 410 kts 303°
2026-05-04 15:23 49.52313 10.02667 27317 ft 432 kts 304°
2026-05-04 15:23 49.54185 9.98940 26440 ft 448 kts 304°
2026-05-04 15:23 49.56112 9.95115 25595 ft 452 kts 304°
2026-05-04 15:24 49.59947 9.87536 23987 ft 446 kts 304°
2026-05-04 15:24 49.63738 9.80025 22222 ft 442 kts 304°
2026-05-04 15:25 49.65625 9.76275 21336 ft 442 kts 304°
2026-05-04 15:25 49.67504 9.72532 20467 ft 441 kts 304°
2026-05-04 15:25 49.69376 9.68789 19631 ft 440 kts 304°
2026-05-04 15:26 49.73089 9.61335 17990 ft 436 kts 304°
2026-05-04 15:26 49.74939 9.57627 17093 ft 434 kts 304°
2026-05-04 15:26 49.78613 9.50244 15368 ft 431 kts 305°
2026-05-04 15:27 49.80428 9.46582 14535 ft 421 kts 305°
2026-05-04 15:27 49.83845 9.39689 12829 ft 388 kts 305°
2026-05-04 15:28 49.86558 9.32889 11285 ft 355 kts 288°
2026-05-04 15:28 49.87259 9.29377 11058 ft 327 kts 283°
2026-05-04 15:28 49.88484 9.23002 10531 ft 299 kts 283°
2026-05-04 15:29 49.89077 9.19946 10283 ft 293 kts 283°
2026-05-04 15:30 49.91377 9.07863 9190 ft 291 kts 282°
2026-05-04 15:30 49.93065 8.98926 8028 ft 285 kts 282°
2026-05-04 15:31 49.94132 8.93300 7280 ft 262 kts 282°
2026-05-04 15:31 49.94868 8.90768 6911 ft 256 kts 303°
2026-05-04 15:32 49.99580 8.87774 5789 ft 261 kts 11°
2026-05-04 15:32 50.02576 8.90729 5033 ft 261 kts 57°
2026-05-04 15:33 50.04314 8.95605 4265 ft 254 kts 41°
2026-05-04 15:34 50.08984 8.96222 4013 ft 233 kts 344°
2026-05-04 15:34 50.10567 8.95640 4007 ft 234 kts 344°
2026-05-04 15:34 50.12829 8.92617 4017 ft 222 kts 277°
2026-05-04 15:35 50.11422 8.88666 4010 ft 223 kts 220°
2026-05-04 15:35 50.10554 8.86868 3978 ft 206 kts 252°
2026-05-04 15:35 50.10152 8.84757 3802 ft 201 kts 252°
2026-05-04 15:36 50.09228 8.80708 3307 ft 195 kts 251°
2026-05-04 15:36 50.08770 8.78764 3059 ft 190 kts 251°
2026-05-04 15:36 50.08310 8.76814 2804 ft 195 kts 252°
2026-05-04 15:37 50.07836 8.74807 2533 ft 200 kts 252°
2026-05-04 15:37 50.07353 8.72765 2299 ft 201 kts 251°
2026-05-04 15:37 50.06876 8.70754 2004 ft 192 kts 252°
2026-05-04 15:37 50.06428 8.68867 1736 ft 179 kts 251°
2026-05-04 15:38 50.06019 8.67140 1528 ft 161 kts 251°
2026-05-04 15:38 50.05647 8.65576 1311 ft 149 kts 252°
2026-05-04 15:38 50.05295 8.64089 1135 ft 141 kts 251°
2026-05-04 15:38 50.04951 8.62691 930 ft 136 kts 249°
2026-05-04 15:39 50.04620 8.61334 732 ft 132 kts 250°
2026-05-04 15:39 50.04319 8.59998 565 ft 130 kts 250°
2026-05-04 15:39 50.03732 8.57540 360 ft 83 kts 250°
2026-05-04 15:40 50.03604 8.56994 358 ft 44 kts 250°
2026-05-04 15:40 50.03495 8.56535 352 ft 48 kts 250°
2026-05-04 15:40 50.03432 8.56068 349 ft 42 kts 276°
2026-05-04 15:40 50.03467 8.55777 351 ft 16 kts 280°
2026-05-04 15:41 50.03468 8.55764 350 ft 0 kts 280°
2026-05-04 15:42 50.03491 8.55712 351 ft 11 kts 325°
2026-05-04 15:42 50.03553 8.55742 350 ft 13 kts 51°
2026-05-04 15:43 50.03598 8.55903 355 ft 16 kts 70°
2026-05-04 15:43 50.03632 8.56049 353 ft 13 kts 70°
2026-05-04 15:43 50.03676 8.56226 358 ft 20 kts 68°
2026-05-04 15:43 50.03726 8.56426 356 ft 19 kts 72°
2026-05-04 15:44 50.03765 8.56612 354 ft 17 kts 71°
2026-05-04 15:44 50.03807 8.56794 353 ft 23 kts 69°
2026-05-04 15:44 50.03870 8.57059 362 ft 27 kts 70°
2026-05-04 15:44 50.03933 8.57321 363 ft 25 kts 70°
2026-05-04 15:45 50.03990 8.57556 368 ft 22 kts 69°
2026-05-04 15:45 50.04041 8.57769 370 ft 20 kts 69°
2026-05-04 15:45 50.04087 8.57960 369 ft 18 kts 69°
2026-05-04 15:45 50.04135 8.58160 369 ft 27 kts 69°
2026-05-04 15:46 50.04218 8.58500 371 ft 33 kts 69°
2026-05-04 15:46 50.04300 8.58838 373 ft 33 kts 69°
2026-05-04 15:46 50.04379 8.59167 376 ft 31 kts 70°
2026-05-04 15:46 50.04438 8.59410 376 ft 21 kts 68°
2026-05-04 15:47 50.04539 8.59468 374 ft 7 kts 357°
2026-05-04 15:47 50.04554 8.59467 374 ft 0 kts 357°
2026-05-04 15:49 50.04565 8.59466 373 ft 8 kts 357°
2026-05-04 15:50 50.04661 8.59456 372 ft 15 kts 351°
2026-05-04 15:50 50.04757 8.59410 372 ft 13 kts 339°
2026-05-04 15:50 50.04792 8.59390 372 ft 1 kts 339°
2026-05-04 15:50 50.04800 8.59385 371 ft 0 kts 339°
2026-05-04 15:53 50.04813 8.59378 371 ft 3 kts 339°
2026-05-04 15:53 50.04841 8.59356 370 ft 5 kts 326°
2026-05-04 15:54 50.04878 8.59282 367 ft 12 kts 325°
2026-05-04 15:54 50.04929 8.59254 366 ft 0 kts 341°